Location: Christianberg
(48.9086°N, 14.0209°E)
Time: 20:40:49
(UTC+00:00)

ATLAS 5 CENTAUR R/B - Pass Details

Date: 20 June 2021
Orbit: 510 x 1148 km, 63.4° (Epoch: 28 July)

Event Time Altitude Azimuth Distance (km) Brightness Sun altitude
Exits shadow 00:47:52 22° 180° (S) 1,208 2.5 -14.1°
Maximum altitude 00:49:59 41° 122° (ESE) 826 2.1 -14.0°
Drops below altitude 10° 00:54:06 10° 52° (NE) 1,986 5.2 -13.7°
Sets 00:56:39 0° 46° (NE) 2,994 6.5 -13.5°
